Wind_Speed
12 14 15 16 16 15 15 15 15 14 15 13 11 11 14 16 17 17 17 16 16 16 14 13 10 9 9 10 10 11 11 12 13 14 14 14 14 14 14 14 13 13 12 11 9 9 11 11 11 9 8 7 6 6 5 4 4 4 4 4 5 6 6 6 7 7 6 6 6 7 8 9 10 11 11 10 10 10 10 9 9 8 7 6 5 4
13 14 15 16 15 15 14 15 15 14 14 13 11 10 11 12 14 15 16 16 16 15 13 11 10 9 9 10 10 10 11 12 13 14 14 14 13 13 13 13 12 12 12 11 10 10 11 11 10 8 7 6 6 6 5 5 4 4 4 5 5 6 6 7 7 7 7 7 7 8 9 10 11 11 11 10 9 9 8 7 7 6 5 4 4 3
11 12 13 14 13 12 12 12 13 13 13 12 12 11 11 12 14 16 17 17 16 15 14 13 11 10 10 10 11 11 11 11 12 13 14 14 14 13 13 12 12 12 12 12 11 11 11 10 9 7 6 6 6 6 6 6 6 5 5 6 6 7 7 7 7 7 7 8 8 9 9 9 10 10 9 8 8 7 6 6 5 4 4 3 3 2
10 10 12 12 11 10 10 11 12 13 14 14 14 15 15 15 16 16 17 17 17 16 16 15 13 12 12 12 12 12 12 12 12 13 14 14 14 14 13 13 12 12 12 12 12 12 11 10 9 7 7 6 6 7 7 7 7 6 6 7 7 8 8 8 8 8 9 9 10 9 9 9 9 8 8 7 6 6 6 5 4 4 3 3 2 2
10 10 11 12 12 12 12 13 14 15 16 16 17 17 17 16 16 16 17 18 18 18 17 16 14 13 13 13 13 13 13 12 12 13 14 15 15 14 14 14 13 13 13 13 12 11 10 9 9 8 8 7 8 8 8 8 8 7 7 7 8 9 9 9 9 10 11 11 10 10 9 9 8 8 8 7 6 6 5 5 5 4 4 4 3 2
11 11 11 12 12 13 14 15 16 16 17 17 17 17 17 16 16 16 17 18 18 18 17 16 14 13 13 13 13 13 12 11 11 13 15 16 16 15 15 15 14 14 13 12 11 10 9 8 8 8 8 8 8 9 9 9 8 8 8 8 9 9 10 10 10 11 12 12 11 11 10 10 9 9 9 8 8 7 6 5 5 5 5 5 4 4
11 12 12 13 14 15 16 17 17 16 15 15 15 16 16 16 16 16 17 17 17 16 16 14 13 12 12 12 12 12 10 9 10 13 16 16 16 16 15 15 14 14 13 12 10 9 8 7 7 8 8 8 9 9 9 9 9 9 9 9 9 9 10 11 11 11 12 12 12 12 12 11 11 11 10 10 10 9 8 6 5 5 5 5 5 5
11 12 13 13 14 14 15 14 14 14 13 13 13 13 14 15 15 15 16 16 16 15 14 13 12 12 11 11 11 10 8 9 11 14 16 17 16 15 15 14 14 13 12 11 9 7 7 6 6 7 8 8 9 9 9 9 9 9 10 10 10 10 11 11 12 12 11 12 12 12 12 12 12 12 12 12 11 10 9 7 6 5 5 5 5 5
11 12 13 12 11 10 9 10 10 10 11 11 11 10 10 11 12 13 14 14 14 13 12 12 12 11 11 10 9 8 8 10 13 16 17 17 17 16 15 14 13 12 11 9 8 7 6 6 6 6 7 8 9 9 9 9 10 11 11 11 11 11 11 11 11 12 11 11 12 12 12 12 13 13 13 12 11 10 9 8 7 6 6 6 5 5
12 12 12 11 10 9 9 9 9 10 11 11 11 11 10 9 9 10 10 11 12 13 12 11 11 12 11 10 9 9 10 12 15 16 17 17 16 16 15 14 13 11 10 9 7 6 5 5 6 7 8 9 9 9 9 10 11 12 12 12 12 11 11 11 11 11 12 12 12 12 12 12 12 12 12 11 10 10 9 8 8 8 8 8 7 6
11 11 11 10 10 11 11 12 12 12 13 13 13 13 12 11 9 8 7 8 10 11 12 11 11 11 11 10 10 12 15 16 16 16 16 14 14 14 14 13 12 10 9 8 7 6 5 5 6 7 8 9 9 9 10 10 11 11 12 12 11 11 11 11 11 11 11 12 12 12 12 11 11 10 10 9 9 9 8 8 9 9 10 10 10 9
9 9 9 9 9 10 11 12 13 13 13 12 10 10 10 10 10 9 7 6 7 9 10 11 11 10 10 11 12 15 17 18 18 18 17 15 13 13 12 11 10 9 9 8 7 6 6 6 6 8 9 9 9 10 10 10 11 11 10 10 10 10 10 10 10 10 10 11 11 11 11 10 10 9 9 9 9 9 10 10 11 11 12 12 12 11
9 9 9 9 10 9 9 9 9 10 11 9 8 7 7 8 9 9 9 7 7 8 10 9 9 10 10 11 14 16 18 19 19 19 18 17 16 14 13 12 11 10 9 8 8 7 6 6 6 8 9 10 10 10 11 11 11 11 10 10 9 9 9 9 9 10 10 10 10 10 10 10 10 10 10 10 11 12 13 13 13 13 13 13 13 13
8 8 8 8 8 8 8 7 7 7 7 8 7 7 7 7 8 8 9 9 9 10 10 9 9 9 10 12 15 18 19 20 20 19 19 18 17 16 15 14 13 12 11 9 9 8 7 7 7 8 9 10 10 10 11 11 11 11 11 11 10 10 10 10 10 10 10 10 10 10 10 10 11 11 11 12 13 14 14 14 14 13 13 13 13 12
7 7 6 6 7 7 7 7 6 6 7 7 8 9 9 9 9 8 8 9 9 10 9 9 9 10 11 12 15 18 19 20 20 19 19 19 18 16 15 14 13 13 11 10 10 9 8 7 7 8 9 10 11 11 11 11 11 11 11 11 11 11 11 11 11 11 11 10 10 10 11 11 11 12 13 13 14 14 14 13 12 12 12 12 12 11
7 6 5 6 6 7 6 6 6 6 7 8 9 10 10 10 9 8 8 8 9 8 7 6 6 7 9 12 15 17 18 19 19 19 20 19 18 16 15 14 14 13 13 12 11 11 10 9 8 9 9 11 12 12 12 12 12 12 12 11 11 10 10 10 10 10 10 11 11 11 11 11 11 12 12 12 12 12 11 11 10 10 11 11 11 11
7 6 6 6 7 7 7 7 7 7 8 9 10 10 10 9 9 8 7 8 8 7 6 5 4 3 4 7 12 16 18 18 18 19 19 19 18 17 15 14 14 14 14 13 13 12 11 11 10 10 10 11 12 13 13 13 13 12 12 11 11 11 10 10 10 10 10 10 10 10 10 10 10 10 10 10 10 10 9 9 9 9 9 10 10 10
7 7 6 6 6 6 6 6 6 7 8 9 10 10 10 9 9 8 8 8 8 7 7 7 6 4 3 3 7 12 17 18 17 17 17 18 18 17 16 15 15 15 15 15 15 14 13 12 12 11 11 11 12 13 13 13 13 12 12 12 11 11 11 10 10 10 10 10 10 9 9 9 9 8 9 9 9 9 9 8 8 8 8 8 8 9
6 6 6 6 6 6 6 6 7 7 8 8 8 9 9 8 8 8 9 9 9 8 8 8 7 7 5 4 6 11 15 18 18 17 16 17 18 17 17 16 15 16 16 16 16 16 15 14 13 13 12 13 13 13 13 13 13 13 13 12 12 12 12 11 11 11 10 10 9 9 9 9 8 8 8 8 9 9 9 8 7 7 7 7 7 7
6 6 5 5 6 6 6 5 6 6 7 7 7 7 7 7 8 8 9 9 9 9 9 9 8 8 7 7 7 9 13 16 18 17 16 16 17 17 17 17 16 17 17 17 17 17 16 15 15 14 14 14 14 14 14 14 14 13 13 13 13 13 12 12 12 11 11 10 10 10 9 9 9 9 9 9 9 9 9 8 7 6 6 6 6 6
5 5 5 5 5 5 5 5 5 6 6 7 7 6 6 6 7 7 8 9 9 10 10 9 9 9 9 9 8 9 12 15 17 16 15 14 14 16 17 17 17 17 17 17 17 17 16 16 16 15 15 15 14 14 14 14 14 14 14 14 14 14 13 13 13 12 12 11 11 11 10 10 10 9 9 9 9 9 9 8 7 6 6 6 6 6
4 4 4 4 5 5 5 5 6 6 6 6 5 5 5 5 5 6 6 7 8 9 9 8 9 10 10 10 9 9 10 13 16 17 14 11 11 13 16 16 17 18 18 18 17 18 17 17 17 17 16 15 15 15 15 15 15 16 15 15 15 15 14 14 13 13 13 12 12 12 11 11 11 10 10 9 9 9 9 8 7 6 6 6 6 6
5 5 5 5 5 6 6 6 6 6 6 5 4 4 4 4 4 4 4 5 6 7 8 10 12 12 12 11 10 10 10 11 14 16 14 10 8 10 14 15 16 18 19 18 18 18 18 18 18 18 17 17 16 16 15 16 16 16 16 16 16 15 15 14 14 14 13 13 13 12 12 12 11 11 10 9 9 9 8 8 7 7 6 6 6 6
5 5 5 5 5 5 5 5 5 5 5 5 6 6 6 6 5 5 4 5 6 7 9 10 11 11 12 11 11 10 10 10 12 14 14 11 9 10 12 12 13 16 18 17 18 18 19 19 19 18 18 18 17 16 16 17 17 17 17 17 16 16 15 15 14 14 14 13 13 13 12 12 11 11 10 9 9 9 8 8 8 7 7 7 7 7
3 3 3 4 4 4 4 4 5 5 5 6 6 6 6 7 7 7 7 7 7 8 8 8 8 8 10 11 11 11 11 11 11 13 14 10 8 9 11 11 11 12 14 15 16 17 18 18 18 19 18 18 18 17 17 18 18 18 18 18 17 16 16 15 15 14 14 14 13 13 13 12 11 10 10 10 9 9 8 8 8 7 7 7 7 7
2 3 3 3 3 3 3 3 4 4 5 5 5 5 6 6 7 7 7 7 7 7 6 5 5 5 8 9 11 11 12 12 12 13 14 10 7 8 10 11 11 10 11 12 14 16 16 17 17 18 18 18 18 18 18 19 19 19 18 18 18 17 17 16 15 15 14 14 14 13 13 12 11 10 10 10 9 9 9 8 8 8 8 8 8 8
3 3 3 3 3 3 3 3 3 4 4 5 5 4 4 5 5 5 5 5 6 5 4 3 3 5 5 6 8 10 12 12 13 14 15 13 9 7 10 11 11 10 11 12 13 15 15 15 15 16 16 17 17 18 19 19 19 19 19 19 19 18 17 17 16 15 15 14 14 14 13 12 11 10 10 10 10 9 9 9 9 8 8 9 9 9
3 4 4 4 4 3 3 3 3 3 3 3 4 4 3 3 2 1 1 3 4 4 5 4 4 4 4 3 4 7 10 11 12 14 14 13 9 7 10 11 11 11 11 12 13 14 14 14 14 14 14 15 16 17 18 19 20 20 20 20 19 19 18 17 16 16 15 15 14 14 13 12 11 11 10 10 10 10 10 10 9 9 9 9 9 9
3 3 4 3 3 2 2 2 2 2 2 2 2 2 2 2 2 1 1 3 3 4 4 4 4 4 4 3 4 6 8 10 11 13 14 12 9 9 11 11 10 10 10 9 9 11 12 13 13 13 13 15 16 16 17 18 19 20 20 21 20 20 19 18 17 17 16 15 15 14 14 13 12 11 11 10 10 11 11 10 10 9 9 9 9 9
3 3 3 3 2 2 2 2 2 3 3 2 2 2 1 1 2 3 3 3 3 3 3 4 5 4 4 4 4 5 6 8 9 10 11 11 10 9 10 10 10 10 9 6 4 5 7 9 11 12 13 14 15 16 16 17 18 19 20 20 21 21 20 19 18 18 17 16 16 15 15 13 12 12 11 11 11 11 11 11 11 10 10 10 10 9
3 3 3 3 2 2 2 2 2 3 3 3 2 2 1 0 2 3 3 3 2 2 2 3 4 4 3 2 2 2 1 4 5 6 8 10 9 8 9 9 10 10 9 7 4 3 2 4 7 9 11 12 13 14 14 15 16 17 18 19 20 20 20 20 19 19 18 18 17 17 16 14 13 12 12 12 12 12 12 12 12 11 11 10 10 10
4 3 3 2 2 2 2 2 2 2 2 2 2 2 2 1 1 1 2 2 3 2 2 2 3 3 3 4 3 2 1 3 4 4 5 8 8 7 9 8 9 11 11 11 7 3 1 1 3 5 6 8 9 10 10 11 13 14 15 17 18 19 19 19 18 18 18 18 18 17 15 14 13 13 12 12 13 13 13 13 13 13 12 11 11 11
4 4 3 3 3 2 2 2 2 2 2 2 2 2 2 1 1 1 0 1 2 3 3 2 2 2 3 4 5 4 4 5 5 3 4 6 7 8 9 9 10 10 11 13 12 8 5 3 2 3 5 6 8 9 10 10 11 11 12 14 15 16 16 16 16 16 16 16 16 15 14 13 13 13 13 13 13 13 14 14 14 14 14 13 12 12
4 4 4 4 3 3 3 2 2 2 2 2 1 1 1 1 1 1 0 1 1 2 3 3 3 2 2 3 4 4 4 5 5 4 4 6 7 8 9 9 9 9 10 12 12 11 9 8 7 5 6 8 10 11 11 12 12 11 11 12 13 14 14 13 13 13 13 13 12 12 12 13 13 13 13 13 14 14 14 15 15 15 15 14 14 13
3 3 4 3 3 3 3 3 3 3 3 2 2 2 2 2 3 3 3 3 3 3 4 4 5 5 4 4 4 4 3 5 5 5 5 6 8 9 9 9 9 8 8 9 9 8 8 9 9 8 6 7 8 10 11 12 12 11 11 11 12 13 13 12 12 11 11 10 10 11 11 12 13 13 14 14 14 14 15 15 16 16 16 15 15 14
3 3 3 3 3 2 2 3 3 4 4 4 4 4 4 4 5 5 5 5 5 5 5 5 6 6 7 7 7 7 6 8 8 7 7 7 8 9 9 9 9 8 8 8 8 7 6 7 7 8 7 7 7 8 9 11 11 10 10 10 11 12 13 13 13 12 11 10 10 11 11 12 12 13 14 14 14 14 14 15 16 16 17 16 16 15
4 4 4 4 3 3 3 3 3 4 5 6 6 6 6 6 6 6 7 7 7 7 7 7 7 7 8 8 9 9 11 11 11 10 9 9 9 9 10 9 9 9 9 8 7 7 7 6 6 6 7 8 7 7 7 9 10 10 10 10 11 12 14 15 15 14 13 12 11 11 11 11 12 12 13 13 13 14 14 15 16 17 17 18 17 16
4 4 4 4 4 4 4 3 3 4 5 7 7 7 7 7 7 7 8 8 8 8 8 8 8 8 8 8 9 9 10 11 11 11 11 10 10 10 11 10 10 10 10 10 9 7 7 6 6 5 6 7 8 8 8 8 9 9 9 9 10 11 13 15 16 16 15 14 13 12 11 11 11 11 11 12 12 13 14 15 16 17 18 18 18 17
4 4 4 4 4 4 3 3 3 5 7 8 8 8 8 8 8 8 8 8 9 9 9 9 9 9 9 9 9 9 10 10 10 11 11 10 10 10 11 11 11 11 11 12 11 10 9 8 7 6 5 6 6 7 8 8 8 7 7 8 9 10 12 14 15 16 16 16 15 13 12 12 12 12 11 11 12 13 14 15 16 17 18 18 18 18
5 4 4 4 4 4 3 3 4 6 8 8 9 8 8 8 8 8 8 8 9 9 9 10 10 10 10 10 10 10 10 10 10 10 10 10 10 10 10 11 11 11 11 12 13 12 11 10 9 8 7 6 6 6 6 7 7 6 6 6 7 9 11 12 14 15 16 17 17 16 14 13 13 13 13 13 13 13 14 15 15 16 17 18 18 18
5 5 5 4 4 5 6 6 7 7 8 8 8 8 8 8 8 8 9 9 9 9 9 9 10 10 11 11 11 11 11 11 11 10 10 10 9 9 10 10 11 12 11 12 13 13 13 12 10 10 9 8 7 7 6 6 6 7 7 7 7 8 9 10 12 13 14 16 17 17 16 15 14 15 15 15 15 14 14 14 14 14 16 18 18 18
5 5 5 5 6 7 7 7 7 8 8 8 8 8 8 8 8 9 9 9 9 10 10 10 10 10 11 11 11 11 10 10 10 10 10 10 10 10 10 10 11 12 12 12 12 13 13 13 12 11 10 9 8 8 7 7 7 7 8 9 8 6 6 9 10 11 13 15 17 18 18 16 15 16 16 16 16 16 15 14 14 14 14 16 18 18
6 6 5 5 7 8 8 8 9 9 8 8 8 8 9 9 9 9 9 8 8 8 8 9 9 9 9 9 10 11 11 11 10 10 10 10 10 10 10 10 11 11 12 12 12 11 12 12 12 12 12 10 9 9 9 8 7 7 9 9 8 6 5 7 9 11 12 14 16 18 19 18 17 16 16 16 17 17 17 17 16 16 16 16 17 18
6 6 6 7 9 10 10 10 10 10 10 9 9 10 10 10 10 10 10 9 8 7 7 8 9 9 8 9 9 9 10 11 11 10 10 10 10 10 11 11 11 12 12 12 11 10 10 10 11 12 12 11 11 11 10 9 8 8 8 9 10 10 8 8 9 10 11 13 15 17 19 19 18 17 16 16 16 17 18 18 19 20 19 19 18 18
7 7 7 9 10 11 11 12 12 12 11 11 11 11 10 11 11 11 11 10 9 8 7 8 8 7 8 8 9 8 9 10 11 11 11 11 10 11 12 12 13 13 13 13 12 11 10 9 9 9 10 10 11 12 12 11 10 10 9 9 10 12 12 10 9 10 11 12 14 16 18 19 19 18 17 16 17 17 18 20 21 22 22 22 22 21
8 8 8 9 10 10 10 10 10 10 11 11 12 11 10 10 11 11 11 11 10 8 8 8 8 7 8 8 9 8 8 9 10 11 11 11 11 11 11 12 13 14 14 14 14 13 12 11 9 8 8 9 10 12 13 13 12 12 12 11 11 12 13 12 11 12 12 12 13 14 15 17 18 19 18 18 18 19 20 21 22 23 24 24 24 24
9 9 9 8 9 9 8 8 7 8 9 10 10 10 9 9 10 11 11 11 10 9 9 9 9 9 10 10 9 9 9 9 9 10 11 11 11 11 11 12 13 14 15 15 15 15 15 15 14 12 10 9 10 11 12 13 13 13 14 13 12 12 13 14 14 14 14 14 14 14 14 16 18 19 20 20 19 20 20 21 22 23 23 24 25 26
9 9 9 9 9 8 8 7 7 8 8 8 8 8 8 8 10 11 11 10 10 9 9 9 9 10 11 11 10 10 10 10 10 9 10 11 11 12 11 11 12 13 15 16 16 17 17 17 17 17 16 14 12 11 12 12 13 14 14 14 14 14 14 15 15 15 15 15 15 15 16 17 18 19 20 19 19 19 20 21 22 22 23 23 24 25
9 9 9 9 9 9 8 8 8 8 8 8 8 8 8 8 10 11 11 10 9 9 9 9 10 10 11 11 11 11 11 11 10 10 10 10 11 12 11 11 11 12 13 14 15 16 17 18 19 19 20 20 18 16 15 15 14 14 14 14 15 15 15 15 15 15 15 16 16 17 17 18 18 19 19 18 18 18 18 19 20 21 22 22 23 24
9 9 8 8 8 9 9 9 9 9 9 9 8 8 8 8 10 11 11 10 9 9 10 10 10 10 11 11 11 10 10 10 10 10 9 10 11 11 11 11 10 10 10 11 12 13 14 15 17 19 20 21 21 21 20 19 18 16 15 15 16 16 16 15 15 15 15 16 16 17 18 19 19 18 18 18 17 17 17 18 18 19 20 21 21 22
9 9 9 9 9 9 9 9 9 9 9 9 9 9 8 8 9 10 10 10 10 10 10 11 11 11 11 11 11 10 10 10 10 10 9 10 11 11 11 10 9 8 7 7 7 7 7 8 10 13 16 18 19 19 21 21 20 18 16 17 17 16 16 16 16 16 15 15 16 17 18 19 19 19 19 18 17 16 16 17 18 18 19 19 20 21
Wind_Direction
281 286 291 293 297 300 301 299 298 297 295 296 294 291 289 287 286 287 291 294 296 299 300 298 289 275 264 257 252 249 246 243 243 244 247 251 256 262 266 268 268 266 262 257 250 238 227 216 207 199 191 189 189 190 188 179 160 144 137 140 142 143 145 145 148 153 159 165 167 170 174 175 176 177 177 177 179 179 178 180 184 188 189 195 198 200
291 292 293 294 296 297 295 293 291 288 284 283 280 279 281 284 286 287 289 290 292 294 294 287 274 260 256 256 255 251 246 243 243 246 250 253 256 257 258 257 256 253 249 243 236 229 223 216 208 196 185 179 175 174 175 177 170 159 152 152 151 149 148 149 153 157 157 159 163 168 175 179 180 180 178 176 176 178 180 182 184 188 194 203 208 207
293 297 297 298 299 300 298 297 295 290 286 282 279 279 282 286 287 288 288 289 290 290 289 283 272 257 246 246 247 245 241 240 243 248 251 252 250 248 244 240 238 237 235 232 228 225 224 224 222 216 207 198 188 182 180 180 179 174 167 165 161 158 156 158 162 165 167 171 176 180 184 187 188 186 183 180 179 179 180 181 183 188 200 217 225 218
300 306 305 306 309 309 306 306 307 305 302 298 296 295 295 294 292 290 289 289 288 288 289 287 279 264 247 240 238 239 239 241 244 246 247 244 240 235 230 227 226 226 226 224 223 223 226 232 240 243 238 226 212 201 195 193 191 188 183 180 176 173 170 171 173 176 179 184 189 192 194 193 192 189 186 185 184 184 187 191 198 208 223 239 235 212
298 304 304 308 310 308 306 306 306 306 305 304 303 302 301 298 294 291 290 288 286 286 287 287 280 267 253 243 240 240 243 246 246 243 239 234 229 224 221 219 219 219 220 220 220 223 229 240 250 255 251 236 221 211 206 204 203 202 202 201 197 192 188 186 185 186 188 189 191 192 192 190 187 185 184 185 188 193 199 207 218 231 243 246 234 208
287 293 298 303 305 305 304 303 302 300 299 298 297 296 294 291 289 287 286 285 285 285 286 284 278 267 256 249 248 249 252 253 247 238 231 225 220 216 215 214 215 216 217 218 220 225 235 248 258 260 253 238 223 215 211 210 209 209 210 211 210 206 201 198 195 193 190 189 187 187 187 187 187 187 190 192 196 199 205 214 227 243 253 253 240 220
286 291 298 303 304 302 301 300 298 297 296 295 293 291 288 286 284 283 283 283 284 285 285 283 276 266 256 253 255 259 260 252 238 228 222 217 214 212 210 210 211 213 216 218 222 230 243 258 265 262 251 236 225 218 214 211 209 207 206 206 206 205 204 204 203 200 196 192 190 189 190 192 195 198 201 204 206 207 209 216 229 245 256 255 246 231
292 295 299 301 300 299 299 298 299 299 298 297 293 290 288 288 288 286 285 285 285 284 283 280 273 263 256 256 260 263 258 239 222 214 210 208 207 206 205 206 208 211 215 220 226 237 252 266 266 256 242 230 223 218 215 210 205 200 197 195 196 199 203 207 208 207 204 200 197 195 196 197 200 204 208 211 212 212 214 219 227 238 247 248 244 238
286 289 292 292 291 291 293 296 299 300 299 297 291 284 283 288 292 293 293 290 287 284 281 276 270 263 258 258 257 250 232 217 207 202 200 199 199 199 200 202 205 211 216 222 230 242 257 266 260 244 232 225 221 218 214 209 204 199 195 193 193 196 200 204 207 209 209 209 206 203 201 201 203 205 208 212 215 218 221 225 231 237 240 240 239 241
276 279 284 284 281 278 282 287 290 291 291 292 289 283 275 276 284 294 298 296 292 288 283 275 268 264 263 258 243 218 197 193 192 193 193 195 196 196 198 201 205 211 218 224 232 243 253 256 246 233 225 222 219 217 213 209 206 202 197 195 193 194 196 199 202 206 210 212 213 211 209 208 208 210 212 217 222 227 231 235 240 245 246 244 242 245
274 277 279 280 280 280 282 283 283 284 285 288 288 285 278 270 268 274 282 287 290 289 284 276 269 264 260 250 226 201 186 181 182 185 186 187 189 194 199 203 207 211 216 221 228 236 243 242 234 225 220 220 220 218 215 212 208 205 201 198 195 195 196 199 202 206 211 214 217 217 217 217 218 221 224 229 234 238 242 246 251 253 254 252 251 251
276 279 279 280 283 286 288 288 287 287 286 285 284 282 278 270 263 257 257 265 277 282 283 279 273 265 254 236 214 196 186 182 181 182 183 181 182 187 193 197 201 203 206 211 219 226 232 233 227 220 216 217 221 223 221 219 216 213 210 206 203 202 203 205 208 211 216 219 222 224 227 230 235 240 244 249 253 256 259 261 262 261 260 259 258 257
278 280 281 283 284 286 287 284 284 285 283 278 272 268 270 268 261 252 244 246 255 266 275 278 273 263 250 230 210 196 187 185 185 186 186 184 183 184 185 187 189 191 196 203 211 219 224 227 224 218 213 214 220 226 228 227 226 225 224 222 221 220 220 220 222 224 227 229 233 237 241 247 253 259 264 267 269 270 270 269 268 266 264 263 261 260
280 280 281 281 279 277 275 267 263 266 269 268 263 261 264 265 260 252 243 241 247 256 266 271 266 255 243 225 210 200 192 188 188 189 189 189 187 185 184 185 187 191 196 204 211 217 224 226 225 221 216 214 218 225 229 231 231 232 233 234 235 236 238 239 240 241 242 245 248 252 257 262 266 270 272 273 273 273 272 271 269 267 266 263 262 259
275 274 272 270 270 270 266 259 254 256 262 266 266 264 262 262 262 258 248 242 247 255 263 263 257 248 238 223 210 203 197 192 190 190 191 192 192 191 189 190 192 197 203 210 216 222 230 231 230 227 223 216 217 224 229 230 231 233 235 237 239 241 244 246 248 250 252 255 259 262 265 269 271 272 273 273 272 271 270 269 268 266 265 263 260 257
271 268 264 267 271 274 271 264 258 258 263 268 271 270 265 264 265 262 250 242 245 250 249 240 238 241 240 229 217 207 200 195 192 191 192 193 194 196 196 198 200 205 211 217 221 226 232 235 237 235 229 221 220 223 227 228 229 230 232 234 237 241 244 247 251 254 256 259 262 265 267 269 271 272 273 272 271 270 269 268 266 265 263 261 258 254
275 272 268 270 275 278 278 271 264 263 268 274 278 277 271 266 263 259 249 242 240 238 229 214 206 217 235 235 225 215 206 200 196 195 195 195 197 199 202 206 209 212 217 221 225 228 230 233 237 237 232 227 225 226 228 229 229 229 229 232 236 240 245 249 253 256 259 262 264 266 267 269 270 271 272 272 272 272 271 269 267 263 261 258 254 250
275 273 271 270 274 278 281 278 275 276 278 280 282 283 280 271 263 255 246 241 234 227 223 218 216 210 199 211 224 221 212 206 202 200 200 200 202 204 207 211 216 219 221 223 226 228 229 232 236 237 234 233 232 232 232 231 229 228 229 231 235 240 245 250 254 257 260 263 265 266 267 267 267 268 269 271 273 274 275 273 269 264 259 254 250 244
275 274 271 271 274 279 283 286 288 287 285 283 284 284 282 277 268 257 246 240 235 230 226 225 228 229 224 220 223 220 214 210 208 207 206 206 208 209 210 212 216 219 221 223 226 229 231 234 238 239 238 238 239 239 237 234 232 231 231 233 236 241 246 251 255 258 260 262 263 264 264 263 262 261 262 265 270 273 277 277 273 265 257 250 242 237
278 278 273 271 273 278 284 288 290 289 288 288 287 284 279 277 271 258 245 240 238 236 234 234 237 239 238 237 234 226 217 212 211 211 211 213 215 215 214 213 215 217 220 225 229 232 233 236 240 242 243 243 243 242 240 236 233 232 233 235 238 243 248 252 255 258 259 260 260 260 259 258 256 256 257 259 264 269 274 277 274 265 253 243 235 229
278 279 276 273 274 277 280 285 288 289 289 292 288 279 269 270 267 258 247 241 238 238 239 241 241 240 239 236 234 229 222 213 210 210 214 218 223 224 222 219 218 220 221 228 234 237 237 238 241 244 246 246 246 243 240 236 234 233 234 237 241 244 249 252 255 257 258 259 258 257 256 255 253 252 253 255 259 263 269 272 271 263 250 240 232 226
272 278 279 281 281 278 276 278 282 285 289 293 287 272 262 265 263 258 254 245 241 239 238 239 240 240 240 238 236 233 228 217 211 210 213 217 229 234 231 227 226 226 227 232 239 242 242 242 243 246 248 248 246 243 239 235 234 234 236 239 243 246 249 252 255 257 257 257 257 255 254 253 252 251 251 252 255 258 262 264 264 258 246 235 226 221
253 259 266 274 279 279 277 274 274 276 281 281 267 250 252 255 258 257 254 245 239 235 235 238 243 248 248 245 242 239 234 224 218 215 214 217 226 234 236 232 231 232 232 237 243 246 247 246 247 248 248 247 245 242 238 235 235 236 238 241 244 248 250 253 255 256 256 255 254 253 253 253 253 252 250 249 249 250 253 256 256 251 240 226 217 213
253 261 270 277 282 283 282 278 273 271 272 270 260 249 241 241 241 239 233 233 234 237 241 249 254 257 256 253 249 243 237 229 222 218 217 220 229 236 238 235 235 236 237 241 246 249 251 251 251 250 249 247 244 241 238 236 236 238 240 243 246 249 251 253 254 254 254 252 251 251 251 252 253 251 248 246 245 244 246 248 248 245 234 221 212 208
261 272 280 284 286 286 285 282 278 277 276 276 272 263 254 248 245 246 248 247 246 246 250 253 257 261 263 260 255 248 239 232 224 219 219 223 233 241 243 241 239 239 242 245 249 251 253 254 254 253 250 246 242 240 238 237 238 240 243 245 247 250 252 253 253 252 251 249 249 249 250 252 252 250 246 243 241 239 240 241 242 239 230 218 210 207
276 285 288 290 293 296 297 295 293 291 289 287 282 271 258 249 247 249 252 253 253 252 252 254 256 259 263 263 259 252 244 234 227 223 222 224 234 248 250 248 246 245 243 247 251 253 253 254 255 255 252 247 243 239 238 238 239 242 244 247 249 251 252 252 251 249 247 246 246 247 248 250 249 247 244 240 237 236 235 235 236 234 227 218 211 207
300 304 305 308 311 314 314 309 303 298 294 292 287 280 266 253 251 255 259 259 255 248 237 235 248 256 256 258 257 254 250 239 231 228 228 228 235 250 254 254 253 250 245 247 251 254 254 253 255 256 255 251 245 241 239 239 241 243 245 247 250 251 252 251 249 247 245 243 243 244 246 247 247 244 241 237 234 232 231 231 231 230 226 218 213 210
314 318 321 324 326 331 331 326 319 308 300 294 289 283 273 254 246 262 271 258 250 236 219 225 246 258 253 241 245 256 261 249 238 233 234 230 233 247 252 256 256 252 247 246 252 257 257 256 254 253 254 253 250 245 242 241 242 243 246 248 249 251 251 249 247 244 242 241 241 242 244 245 244 241 238 234 232 230 229 228 228 227 223 219 215 212
314 323 329 334 341 350 354 351 348 342 336 324 309 296 282 237 168 138 249 251 240 224 217 229 245 259 267 269 270 272 272 264 251 241 237 229 230 242 249 253 254 251 246 245 255 264 263 261 256 249 246 251 253 252 248 246 245 245 246 247 248 249 248 247 244 242 240 239 239 241 242 242 241 238 234 231 230 229 227 225 224 223 221 218 216 215
320 329 335 341 348 359 10 13 13 13 17 17 9 347 319 230 188 184 217 239 232 217 224 241 252 259 269 289 295 285 270 264 259 249 237 227 227 238 247 249 248 244 237 234 247 264 262 259 252 244 240 246 251 254 254 252 251 249 248 248 247 247 246 245 242 240 239 238 239 240 241 240 239 235 230 227 227 226 224 223 221 219 217 216 216 215
312 324 336 341 345 350 2 14 23 30 35 38 40 42 45 177 207 211 216 217 204 205 244 259 260 258 255 271 286 288 258 252 264 262 237 221 223 238 242 242 243 240 228 211 220 258 239 233 236 236 236 241 247 253 256 258 257 255 253 250 248 246 245 243 242 241 240 240 241 242 241 239 236 232 228 225 224 224 223 221 220 219 216 214 214 215
288 300 310 321 329 335 347 2 17 28 39 48 58 65 73 89 133 205 215 206 193 194 227 267 271 260 244 243 256 280 331 287 291 282 242 217 220 236 239 237 239 238 229 215 217 243 276 173 211 230 232 240 249 256 261 264 265 263 259 253 249 246 244 243 243 243 243 243 244 243 241 237 233 230 227 224 222 222 221 219 219 219 218 215 214 214
280 289 294 301 308 316 325 340 355 13 24 39 52 64 73 79 84 92 126 202 206 206 208 228 265 268 254 248 258 275 294 297 298 285 247 223 225 235 240 238 238 238 234 225 223 230 251 258 269 272 269 268 269 272 273 275 275 272 265 255 248 244 242 241 241 242 244 245 245 243 238 232 229 227 225 223 221 221 220 218 217 218 220 219 217 215
285 293 297 302 305 310 315 320 326 334 345 355 2 10 12 4 357 340 303 258 235 231 229 226 227 235 249 261 267 273 284 285 282 270 250 230 229 236 242 238 236 236 236 231 231 235 246 255 265 278 283 280 279 280 279 278 277 275 269 258 247 240 237 235 236 238 241 243 241 236 230 226 223 222 222 221 220 219 219 218 217 217 219 220 218 215
283 289 292 296 301 308 312 312 312 311 309 311 313 313 310 306 302 296 292 286 276 266 257 252 247 245 246 248 259 268 274 273 268 263 258 241 235 239 246 241 236 233 233 233 233 237 248 256 260 263 268 270 273 274 275 274 274 272 268 259 246 235 229 227 227 229 231 231 228 224 221 219 218 217 217 217 218 218 218 218 217 217 218 218 218 215
264 258 259 262 267 273 280 290 297 299 298 295 293 292 292 292 291 291 291 291 289 286 280 274 269 264 260 256 253 252 254 260 264 266 264 255 246 244 246 243 238 232 228 230 231 233 241 251 254 254 255 258 262 263 263 266 268 268 263 255 243 232 224 221 220 219 217 216 215 215 215 215 215 215 215 215 216 218 218 218 217 217 218 218 218 218
250 247 244 242 242 245 249 258 272 282 285 288 289 289 289 289 289 291 293 295 295 294 292 288 284 279 273 268 263 258 257 262 267 269 266 261 254 247 242 243 241 235 228 227 230 233 236 244 250 249 246 247 251 252 248 255 260 262 260 254 243 231 224 222 221 218 212 210 209 210 210 212 213 214 215 216 216 217 218 218 218 218 218 218 218 219
248 251 249 244 242 247 253 258 261 265 269 279 286 291 292 292 292 294 296 298 299 299 298 295 293 289 284 279 273 268 266 267 268 268 266 262 257 249 240 241 242 239 233 228 229 232 234 240 244 246 246 245 246 246 241 247 254 260 263 260 249 236 229 227 226 223 217 212 209 208 208 210 211 212 213 213 214 215 216 216 216 216 216 217 219 220
246 252 254 249 245 247 254 257 254 257 265 278 287 293 295 295 296 297 299 300 301 300 299 298 296 293 290 286 281 277 274 271 270 269 267 264 259 252 243 239 240 241 239 234 231 230 231 235 240 245 249 252 249 244 240 243 248 254 259 259 253 244 236 233 232 229 224 217 212 209 209 209 210 210 209 209 210 212 213 214 214 213 213 215 217 220
240 247 252 252 246 238 235 237 251 265 276 286 291 293 293 294 296 298 300 300 300 299 298 297 295 294 291 288 285 281 278 275 273 271 269 266 262 255 248 241 239 240 242 240 237 234 232 234 239 244 250 259 261 254 243 240 241 241 240 238 239 242 243 241 238 235 231 223 216 212 210 210 210 210 209 209 210 211 211 211 212 211 211 211 213 216
239 244 250 251 240 232 238 254 270 282 289 290 289 288 289 291 294 296 299 300 299 298 296 296 295 293 291 288 286 283 280 277 274 273 271 268 264 258 252 245 240 238 241 243 243 240 236 235 238 244 249 257 263 264 257 247 239 234 228 226 233 245 252 251 247 242 235 228 222 216 212 212 213 213 212 212 212 213 213 211 210 211 212 212 212 213
240 247 253 249 240 240 252 271 285 292 292 290 287 286 287 289 290 293 296 299 300 301 301 299 297 295 295 295 292 289 286 281 278 274 271 268 264 260 255 249 244 242 243 245 246 246 243 239 238 240 245 251 258 263 263 255 247 239 232 229 233 243 253 250 249 245 237 231 225 220 215 214 216 218 218 218 218 218 217 213 210 210 212 214 215 214
243 248 254 249 247 252 264 276 284 288 288 286 284 284 286 287 286 286 287 288 288 289 292 294 295 293 290 286 285 286 288 287 284 279 274 269 264 260 257 253 249 247 247 246 246 248 249 246 242 240 241 243 249 256 259 256 250 244 239 234 228 225 230 233 239 243 239 234 228 223 219 217 219 222 224 225 225 224 222 218 213 210 210 213 215 215
248 251 251 248 251 258 268 275 279 281 280 279 280 282 284 283 281 280 278 277 274 270 271 277 283 285 280 275 272 272 275 280 281 280 277 273 267 261 257 254 252 251 251 247 243 243 246 247 245 243 242 242 245 249 251 251 249 246 243 238 231 225 226 233 240 242 242 237 232 228 224 222 221 223 226 229 229 229 227 224 220 215 212 212 212 213
250 250 249 251 256 263 269 274 277 277 276 276 277 278 276 276 275 274 271 269 267 263 260 264 269 273 271 271 271 268 262 264 268 273 276 276 270 262 256 252 251 251 252 251 247 242 238 239 244 247 247 245 244 244 245 246 246 247 245 242 238 233 229 235 244 246 242 240 237 233 229 226 224 224 225 227 229 229 229 229 227 224 220 217 215 214
247 246 248 254 261 267 270 272 273 274 274 274 275 274 270 267 266 267 265 263 260 257 254 256 257 259 263 268 270 268 262 262 266 270 274 275 273 266 258 252 250 249 250 250 250 247 242 237 237 241 244 245 244 244 243 242 243 245 245 243 241 238 235 235 238 243 245 244 241 237 233 229 226 224 224 226 228 230 231 233 233 231 229 226 223 221
242 243 246 252 259 262 263 261 261 263 266 269 270 269 264 257 256 259 260 258 255 251 250 251 251 253 256 261 264 264 262 261 262 267 272 275 275 272 265 257 251 249 249 249 250 249 247 244 239 237 237 240 244 247 246 244 242 242 242 242 241 240 238 235 235 238 243 245 244 240 236 230 226 224 225 227 229 232 234 236 238 239 237 235 232 230
238 241 245 250 254 256 255 254 253 254 257 259 262 261 257 250 249 252 254 254 251 248 247 247 247 249 253 255 256 256 257 258 259 260 266 271 274 276 273 266 259 253 251 251 251 252 252 252 249 244 241 239 241 245 247 246 244 243 242 241 239 239 239 237 235 236 239 242 243 241 238 232 228 225 226 227 230 233 236 238 241 243 243 242 240 238
236 239 244 247 250 251 252 251 251 252 253 255 257 257 255 248 247 248 249 249 247 245 244 245 247 250 253 254 255 254 253 254 255 256 259 262 267 270 272 270 267 262 258 256 256 257 258 258 256 253 250 246 244 244 246 247 246 244 243 241 239 238 238 238 236 235 235 237 239 240 240 238 237 234 230 228 230 234 237 239 241 243 245 246 245 243
235 236 239 242 244 246 249 251 251 250 251 252 254 255 255 252 250 249 249 247 246 245 245 246 248 251 255 256 256 255 254 253 253 253 254 254 257 260 261 263 263 262 261 263 264 265 266 268 266 263 259 255 250 246 245 245 246 245 242 241 239 237 237 237 236 234 232 233 235 236 238 239 239 238 233 230 231 235 238 239 239 241 243 246 247 247
233 234 237 239 240 243 245 247 248 249 250 252 253 253 254 252 251 251 250 249 248 248 248 248 249 252 255 258 259 258 256 255 254 253 253 250 251 252 252 253 251 248 245 250 256 261 266 272 274 272 268 263 257 252 245 242 241 241 240 240 239 237 235 236 235 233 231 231 232 234 235 235 235 233 231 230 231 236 239 239 239 239 241 243 246 248
Height
809 809 809 809 809 809 809 809 809 809 809 810 810 809 808 808 808 808 808 808 808 808 808 809 809 810 810 810 810 810 810 811 811 812 812 812 812 812 813 813 814 814 814 815 815 815 816 816 816 816 816 816 817 817 817 818 818 818 818 818 818 818 818 818 819 819 820 821 821 821 821 822 822 822 823 824 824 824 825 825 826 826 827 828 828 829
808 808 808 808 808 809 809 808 809 809 809 809 809 808 807 807 807 807 807 807 807 807 808 808 809 809 809 809 809 810 810 811 811 811 811 811 812 812 812 813 813 813 814 814 815 815 815 815 815 816 816 816 816 817 817 818 818 818 818 818 818 818 818 819 819 819 820 821 821 821 821 821 822 822 823 823 824 825 825 825 826 826 827 828 828 829
808 808 808 808 808 808 808 808 808 808 808 808 808 807 807 806 806 806 806 806 806 807 807 807 808 808 809 809 809 809 810 810 810 810 811 811 811 811 812 812 812 813 813 814 814 815 815 815 815 815 816 816 816 817 817 817 818 818 817 818 818 818 818 819 819 820 820 821 821 821 821 821 822 823 823 824 824 825 825 825 826 826 827 828 828 829
808 807 807 807 807 808 808 808 807 807 807 807 807 806 806 806 806 805 805 805 806 806 806 806 807 807 808 808 808 809 809 809 810 810 810 810 810 811 811 811 812 812 813 813 814 814 814 815 815 815 816 816 816 817 817 817 817 817 817 817 818 818 818 818 819 819 820 820 820 821 821 822 822 823 823 824 824 825 825 825 826 826 827 827 828 829
808 807 807 807 807 807 807 807 807 807 807 806 806 806 805 805 805 805 804 804 804 805 805 806 806 806 807 807 807 808 808 809 809 809 810 810 810 810 810 811 811 812 812 813 813 814 814 814 815 815 816 816 816 817 817 817 817 817 817 817 818 818 818 818 819 819 820 820 820 821 821 821 822 823 823 824 824 825 825 825 826 826 827 827 828 829
808 807 806 807 807 807 807 806 806 806 806 806 805 805 804 804 804 804 803 803 803 804 804 805 805 806 806 806 807 807 808 808 808 809 809 809 809 809 810 810 811 811 811 812 813 813 813 814 814 815 815 816 816 816 816 817 817 817 817 817 817 818 818 818 819 819 819 819 820 820 821 821 822 822 823 824 824 824 825 825 825 826 826 827 828 828
807 806 806 806 806 806 806 806 805 805 805 804 804 804 803 803 803 803 803 803 803 803 803 804 804 805 805 806 806 806 807 807 807 808 808 808 809 809 809 810 810 811 811 811 812 812 813 813 814 814 815 816 816 816 816 816 817 817 817 817 817 817 818 818 818 819 819 819 819 820 820 821 821 822 822 823 824 824 824 825 825 826 826 826 827 828
806 806 806 806 806 805 805 804 804 804 804 803 803 803 802 802 802 802 802 802 802 802 803 803 803 804 804 805 805 806 806 806 807 807 807 808 808 808 809 809 810 810 811 811 811 812 812 813 813 814 815 815 815 816 816 816 816 816 816 816 817 817 817 818 818 818 819 819 819 820 820 820 821 821 822 823 823 824 824 824 825 825 826 826 827 827
806 806 806 805 805 805 804 804 803 803 803 803 803 803 802 802 801 801 801 801 801 802 802 802 803 803 804 804 805 806 806 806 806 806 807 807 807 808 808 809 809 810 810 811 811 811 812 812 813 814 814 815 815 815 816 816 816 816 816 816 816 816 817 817 818 818 818 819 819 819 820 820 821 821 822 822 823 823 823 824 824 825 825 826 826 827
806 806 805 805 804 804 804 803 803 803 802 802 802 802 802 802 801 801 801 801 801 801 802 802 802 803 803 804 805 805 806 806 806 806 806 807 807 807 808 808 809 809 810 810 811 811 811 812 813 813 814 814 815 815 815 816 816 816 816 816 816 816 817 817 817 818 818 818 819 819 819 820 820 821 821 822 822 823 823 823 824 824 825 825 826 826
805 804 804 804 803 803 803 803 802 802 802 801 801 801 801 801 801 801 801 801 801 801 801 801 802 802 803 804 804 805 805 805 806 806 806 807 807 807 807 808 808 809 809 810 810 811 811 812 812 813 813 814 814 815 815 815 815 816 816 816 816 816 816 817 817 817 818 818 818 819 819 820 820 821 821 822 822 822 823 823 823 823 824 824 825 826
804 804 803 803 803 802 802 802 801 801 801 801 801 801 801 801 801 801 801 801 801 800 800 801 801 802 803 803 804 804 804 804 805 805 806 806 807 807 807 808 808 808 809 809 810 810 811 811 812 813 813 814 814 814 815 815 815 815 815 815 816 816 816 816 817 817 817 818 818 818 819 819 820 820 821 821 821 822 822 822 822 823 823 824 824 825
803 803 802 802 802 802 802 801 801 801 801 801 801 801 801 801 801 801 801 801 801 800 800 801 801 802 802 803 804 804 804 804 804 805 805 806 806 806 807 807 808 808 808 809 809 810 811 811 812 812 813 813 814 814 814 814 815 815 815 815 815 816 816 816 816 817 817 817 818 818 818 819 819 820 820 820 821 821 821 821 821 822 822 823 823 824
802 802 802 801 801 801 801 801 801 800 800 800 801 801 801 801 800 800 801 801 800 800 800 801 801 801 802 802 803 803 803 804 804 804 805 805 805 806 806 807 807 807 808 808 809 809 810 811 811 812 813 813 813 814 814 814 814 814 815 815 815 815 816 816 816 816 817 817 817 817 818 818 818 819 819 819 820 820 820 820 821 821 821 821 822 822
801 801 801 801 801 801 801 800 800 800 800 800 800 800 800 800 800 800 800 800 800 800 800 801 801 801 801 802 802 803 803 803 803 804 804 805 805 805 806 806 807 807 807 808 808 809 810 810 811 811 812 813 813 813 813 813 814 814 814 814 815 815 815 815 816 816 816 816 817 817 817 817 818 818 818 819 819 819 819 819 820 820 820 821 821 821
801 801 801 800 800 800 800 800 800 800 800 799 799 800 800 800 800 800 800 800 800 800 800 801 801 801 801 801 802 802 803 803 803 803 804 804 805 805 806 806 806 807 807 807 808 808 809 810 810 811 811 812 813 813 813 813 813 813 814 814 814 814 814 815 815 815 816 816 816 816 816 817 817 817 818 818 818 818 818 818 819 819 819 819 820 820
801 800 800 800 800 800 800 799 799 799 799 799 799 799 799 799 799 799 800 799 800 800 800 800 801 801 801 801 801 802 802 802 803 803 803 804 804 805 805 806 806 806 806 807 807 808 808 809 810 810 811 811 812 812 812 813 813 813 813 813 813 813 814 814 814 815 815 815 815 816 816 816 816 817 817 817 817 817 817 818 818 818 818 818 819 819
800 800 800 800 800 799 799 799 799 799 799 799 799 798 799 799 799 799 799 799 799 800 800 800 800 800 800 800 800 801 801 802 803 803 803 804 804 805 805 805 806 806 806 806 806 807 807 808 809 810 810 811 811 811 812 812 812 812 812 812 813 813 813 813 814 814 814 814 815 815 815 816 816 816 816 816 817 817 817 817 817 817 817 817 818 818
800 799 799 799 799 799 799 799 798 798 798 798 798 798 798 798 798 798 799 799 799 799 799 800 800 800 800 800 799 800 801 801 802 802 803 803 804 804 804 805 805 806 806 806 806 806 807 807 808 809 810 810 811 811 811 811 812 812 812 812 812 812 812 812 813 813 813 814 814 814 815 815 815 816 816 816 816 816 816 816 816 816 816 817 817 818
799 799 799 799 799 799 799 798 798 798 798 798 798 797 797 797 797 798 798 798 799 799 799 799 800 800 800 799 799 800 800 801 801 802 802 803 803 803 804 804 805 805 805 805 805 806 806 807 807 808 809 809 810 810 811 811 811 811 811 811 811 811 812 812 812 812 813 813 813 814 814 814 815 815 816 816 816 815 815 815 815 816 816 816 817 817
799 799 799 799 798 798 798 798 798 798 797 797 797 797 797 797 797 797 797 798 798 798 799 799 799 799 799 799 800 800 800 801 801 802 802 802 803 803 803 804 804 805 805 805 805 805 806 806 806 807 808 808 809 809 810 810 810 810 811 811 811 811 811 811 811 811 812 812 812 813 813 814 814 814 815 815 815 815 815 815 815 815 815 816 816 817
799 799 798 798 798 798 798 798 797 797 797 796 796 796 796 796 796 796 797 797 797 798 798 799 799 798 799 799 800 800 800 801 801 801 802 802 802 802 803 804 804 804 804 804 804 804 805 806 806 806 807 807 808 808 809 809 809 809 810 810 810 810 810 810 811 811 811 811 812 812 812 813 813 814 814 814 814 814 814 814 814 814 815 815 816 816
798 798 798 797 797 797 797 797 797 796 796 796 796 796 796 796 796 796 796 797 797 798 798 798 798 798 799 799 800 800 800 801 801 801 801 802 802 802 802 803 803 803 803 804 804 804 804 805 805 805 806 806 806 807 807 808 808 808 809 809 809 809 809 810 810 810 810 811 811 811 811 812 812 813 813 813 813 813 813 813 813 814 814 815 815 816
797 797 797 797 797 797 797 796 796 796 796 796 796 796 796 796 796 796 796 797 797 797 797 797 798 798 799 799 799 800 800 800 801 801 801 801 801 801 801 802 802 803 802 803 803 803 803 803 804 804 805 805 805 806 806 806 807 807 808 808 808 808 808 809 809 809 809 810 810 810 811 811 811 811 812 812 812 812 812 813 813 813 814 814 815 815
797 797 797 796 796 796 796 796 796 795 795 795 795 795 795 796 796 796 796 796 796 797 797 797 798 798 798 798 799 799 800 800 800 801 801 801 801 801 800 801 802 802 802 802 802 802 802 802 802 803 803 804 804 805 805 806 806 806 806 807 807 807 807 808 808 808 808 809 809 809 810 810 810 811 811 811 811 811 812 812 812 813 813 814 814 815
796 796 796 796 796 796 796 795 795 795 795 795 795 795 795 795 795 796 796 796 796 797 797 797 798 798 798 798 798 799 799 800 800 800 801 801 801 800 800 800 801 801 801 801 801 801 801 801 801 801 801 802 803 803 804 804 805 805 806 806 806 806 806 806 807 807 807 808 808 808 808 809 809 810 810 810 811 811 811 811 812 812 812 813 814 814
796 796 796 796 795 795 795 795 795 794 794 794 794 794 795 795 795 795 796 796 796 796 797 797 798 798 798 798 798 798 798 799 799 800 800 800 800 800 799 800 800 801 801 800 800 800 800 800 800 800 800 801 801 802 802 803 803 804 804 805 805 805 805 806 806 806 806 806 807 807 807 808 808 808 809 809 810 810 810 811 811 811 812 812 813 813
796 796 795 795 795 795 794 794 794 794 794 794 794 794 794 795 795 796 796 796 796 796 797 797 798 798 798 798 797 797 797 798 799 799 799 800 800 800 799 799 800 800 800 800 799 799 799 799 799 799 799 799 800 801 801 802 802 802 803 803 803 804 804 804 805 805 805 806 806 806 806 806 807 807 808 808 809 809 810 810 810 811 811 812 812 813
795 795 795 795 794 794 794 794 794 794 794 794 794 794 794 794 795 796 796 796 796 796 797 797 798 798 798 797 797 797 797 797 798 798 799 799 799 799 798 799 799 799 799 799 799 799 798 798 798 799 799 798 799 799 800 800 801 801 801 802 802 802 803 803 803 804 804 804 805 805 805 806 806 806 807 807 808 808 809 809 810 810 811 811 812 812
795 795 795 794 794 794 794 793 793 793 793 793 794 794 794 794 795 795 795 796 796 796 797 797 797 798 798 798 797 797 796 796 796 797 798 798 798 798 797 798 798 799 799 799 799 798 797 797 797 797 797 797 797 798 798 799 799 799 800 800 800 801 801 801 802 802 803 803 803 803 804 804 805 805 806 806 807 808 808 809 809 810 810 810 811 811
795 794 794 794 794 794 794 793 793 793 793 793 793 794 794 794 794 795 795 796 796 796 797 797 797 797 797 798 798 797 796 796 796 796 797 797 798 797 797 797 798 798 798 799 799 798 797 796 796 796 796 796 796 796 797 797 797 798 798 798 799 799 800 800 801 801 801 801 802 802 802 803 804 804 805 806 806 807 807 808 808 809 809 810 810 811
794 794 794 794 794 794 794 793 793 793 793 793 794 794 794 794 795 795 795 795 796 796 796 797 797 797 797 798 797 797 796 796 796 796 796 797 797 797 797 797 797 797 798 798 798 797 796 796 796 795 796 796 796 796 796 796 796 796 796 797 797 797 798 799 799 799 800 800 800 801 801 802 802 803 804 804 805 806 806 807 807 808 808 809 809 810
794 794 794 793 793 793 793 793 793 793 793 793 794 794 794 794 795 795 795 795 796 796 796 796 797 797 797 797 797 797 796 796 796 796 796 797 797 796 796 797 797 797 797 797 797 797 796 796 795 795 795 795 795 795 795 795 795 795 796 796 796 796 797 797 798 798 798 798 799 799 800 801 801 802 802 803 804 805 806 806 806 807 807 808 808 809
794 793 793 793 793 793 793 793 793 793 793 793 794 794 794 794 795 795 795 795 796 796 796 796 796 796 796 797 797 797 796 796 796 796 796 796 796 796 796 796 796 796 796 796 796 796 796 795 795 795 795 794 794 794 794 794 794 794 794 795 795 795 796 796 796 797 797 797 798 798 799 799 800 801 801 802 803 804 805 805 806 806 807 807 808 808
794 793 793 793 793 793 793 793 793 793 793 793 794 794 794 794 794 795 795 795 795 796 796 796 796 796 796 796 796 796 796 796 796 796 796 796 796 796 796 796 796 796 796 796 796 796 795 795 795 795 795 794 794 793 793 793 793 793 793 793 794 794 795 795 796 796 796 796 797 797 798 798 799 800 801 801 802 803 803 804 805 805 806 806 807 807
794 794 794 793 793 793 793 793 793 793 793 793 793 794 794 794 794 794 794 795 795 795 795 795 796 796 796 796 796 796 796 795 795 796 796 796 796 796 796 795 795 796 796 795 795 795 795 794 794 794 794 794 793 793 792 792 792 792 792 792 793 793 794 794 795 795 796 796 796 796 797 797 798 798 799 800 801 801 802 803 804 804 805 806 806 806
794 794 794 793 793 793 793 793 793 793 793 793 793 793 794 794 794 794 794 794 794 794 795 795 795 795 795 795 795 795 795 795 795 795 795 795 795 795 795 795 795 795 795 795 795 794 794 794 793 793 793 793 793 792 792 791 791 791 791 791 792 792 792 793 793 794 795 795 796 796 796 797 797 798 798 799 800 800 801 802 802 803 804 805 805 806
793 794 794 793 793 793 793 793 793 793 793 793 793 793 793 793 793 793 793 794 794 794 794 794 794 794 794 794 794 794 794 794 794 794 794 794 794 794 794 794 794 794 794 794 794 794 793 793 793 792 792 792 792 792 791 791 791 791 791 791 791 791 791 792 792 793 793 794 795 795 796 796 796 797 797 798 799 799 800 801 801 802 803 804 804 805
793 793 793 793 793 793 793 793 793 793 793 793 793 793 793 793 793 793 793 793 793 793 793 793 793 793 793 793 793 793 793 793 793 793 793 793 793 793 793 793 793 793 793 793 793 793 793 792 792 792 791 791 791 791 791 790 790 790 790 790 790 790 791 791 791 792 792 793 794 794 795 795 796 796 797 797 797 798 798 799 800 801 801 802 803 804
793 793 793 793 793 793 793 793 793 793 793 793 792 792 792 792 792 792 792 792 792 792 792 792 792 792 792 792 792 792 792 792 792 792 792 792 792 792 792 792 792 792 792 792 792 792 792 791 791 791 791 791 791 790 790 790 790 790 790 790 790 789 790 790 790 791 791 792 792 793 794 794 795 795 796 796 796 797 797 798 798 799 800 801 801 802
792 792 793 793 793 792 792 792 792 792 792 792 792 792 792 792 792 792 792 792 792 792 792 792 792 791 791 791 791 791 791 791 791 791 791 791 791 791 791 791 791 791 791 791 791 791 791 791 791 790 790 790 790 790 790 789 789 790 790 790 789 789 789 789 789 790 790 791 791 792 793 793 794 794 795 795 795 796 796 797 797 798 799 799 800 800
792 792 792 792 792 792 792 792 792 792 792 792 792 791 791 791 791 791 791 791 791 791 791 791 791 791 791 790 790 790 790 790 790 790 790 790 790 790 790 790 790 790 790 790 790 790 790 790 790 790 789 789 789 789 789 789 789 789 789 789 789 789 789 789 788 789 789 790 790 791 791 792 792 793 793 794 794 795 795 796 797 797 798 798 798 799
791 792 792 792 791 791 791 791 791 791 791 791 791 791 791 791 791 791 791 791 791 791 791 791 791 791 791 790 790 789 789 789 789 789 789 789 789 789 789 789 789 789 789 789 789 788 788 788 788 788 788 789 789 788 788 788 788 788 788 788 789 789 789 788 788 788 788 789 789 790 790 791 791 792 792 793 793 794 794 795 796 796 796 797 797 797
791 791 791 791 791 791 791 791 791 791 791 791 791 791 791 791 791 791 791 791 791 791 791 791 790 790 790 790 790 789 788 788 788 788 788 788 788 788 788 788 788 788 788 788 788 788 788 788 787 787 787 788 788 788 787 787 787 787 787 787 788 788 788 787 787 787 787 788 788 789 789 790 790 791 791 792 792 792 793 793 794 794 795 795 796 796
790 790 790 790 790 790 790 790 790 790 790 790 790 790 790 790 790 790 790 790 790 791 791 790 790 790 790 789 789 789 788 787 787 786 786 786 786 786 786 786 786 786 786 786 786 787 787 787 787 786 787 787 787 786 786 786 786 787 787 787 787 787 787 787 787 786 787 787 787 788 788 789 790 790 790 790 791 791 791 791 792 792 793 794 794 795
789 790 790 789 789 789 789 789 789 789 789 789 789 789 789 789 789 789 789 789 790 790 790 790 790 789 789 789 788 788 788 787 786 786 786 786 786 786 786 786 786 786 786 786 786 786 786 786 786 786 786 786 786 785 785 786 786 786 786 786 786 786 786 786 786 786 786 786 786 787 787 788 788 789 789 789 789 789 789 790 790 791 791 792 792 793
788 789 789 789 789 788 788 789 789 788 788 788 788 788 788 788 788 788 788 788 789 789 789 789 789 789 788 788 787 787 787 786 786 785 784 784 784 784 784 784 784 784 784 784 784 784 784 785 785 785 785 785 785 784 784 784 784 785 785 785 785 785 785 785 785 785 785 785 785 786 786 787 787 787 787 787 788 788 788 788 788 789 789 790 791 791
787 787 788 788 788 788 788 788 788 788 788 787 787 787 788 788 787 787 787 787 788 788 788 788 788 787 787 787 786 786 786 786 785 785 784 783 783 783 783 783 783 783 783 783 783 783 783 783 783 783 783 784 783 783 783 783 783 783 783 783 783 783 783 783 783 784 784 784 784 784 785 785 785 786 786 786 786 786 786 786 786 787 787 788 788 789
786 786 787 787 787 787 787 787 787 787 787 787 787 787 787 787 787 786 786 787 787 787 787 787 787 786 786 786 785 785 785 784 784 784 783 782 782 782 782 782 782 782 782 782 782 782 782 782 781 781 782 782 782 782 781 781 782 782 782 782 782 782 782 782 782 783 783 783 783 783 783 783 784 784 785 785 785 785 785 785 785 785 785 786 786 787
785 785 786 786 786 786 786 786 786 786 786 786 786 786 786 786 786 786 786 786 786 786 786 786 786 786 785 785 784 784 784 783 783 783 783 782 781 781 781 781 781 781 781 781 781 781 781 780 780 779 779 779 780 780 780 780 780 780 780 780 780 780 781 781 781 781 781 781 781 781 782 782 782 783 784 784 783 783 783 783 783 784 784 784 785 785
784 784 785 785 785 785 785 785 785 785 785 786 786 786 786 786 785 785 785 785 785 785 785 785 785 785 784 784 783 783 783 782 782 782 782 782 781 780 780 780 781 781 781 781 781 781 780 780 778 777 776 776 776 777 777 777 778 778 778 778 778 779 779 779 780 780 781 781 781 780 780 781 781 781 782 782 782 782 782 782 782 782 782 783 783 783